Location: Normandy Village
(37.8755°N, 122.2655°W)
Time: 09:37:52
(UTC+00:00)

SeaSat 1 - Pass Details

Date: 22 September 2019
Orbit: 744 x 747 km, 108.0° (Epoch: 14 October)

Event Time Altitude Azimuth Distance (km) Brightness Sun altitude
Rises 12:36:36 0° 19° (NNE) 3,198 6.2 -16.5°
Reaches altitude 10° 12:38:54 10° 15° (NNE) 2,270 5.3 -16.0°
Maximum altitude 12:43:41 53° 300° (WNW) 921 2.6 -15.1°
Enters shadow 12:47:15 18° 229° (SW) 1,794 3.9 -14.4°
